This is the latest recevied weather packets stored in our database for station/object GW4003. If no packets are shown the sender has not sent any weather packets the latest 10 day(s).
| Time | Temp. | Humidity | Pressure | Rain* | Wind** | Luminosity | Snow |
|---|---|---|---|---|---|---|---|
| 1777755669 | 20.56° C | 10% | 1019.6 hPa | 0 mm | - | - | - |
| 1777755366 | 21.11° C | 9% | 1019.7 hPa | 0 mm | - | - | - |
| 1777755062 | 21.11° C | 10% | 1019.7 hPa | 0 mm | - | - | - |
| 1777754759 | 21.11° C | 11% | 1019.9 hPa | 0 mm | - | - | - |
| 1777754456 | 20.56° C | 11% | 1020 hPa | 0 mm | - | - | - |
| 1777754152 | 20.56° C | 11% | 1020.1 hPa | 0 mm | - | - | - |
| 1777753849 | 20° C | 11% | 1020 hPa | 0 mm | - | - | - |
| 1777753546 | 20.56° C | 10% | 1020 hPa | 0 mm | - | - | - |
| 1777753241 | 20.56° C | 12% | 1020 hPa | 0 mm | - | - | - |
| 1777752938 | 20.56° C | 12% | 1020.1 hPa | 0 mm | - | - | - |
| 1777752635 | 20.56° C | 15% | 1020.3 hPa | 0 mm | - | - | - |
| 1777752331 | 20° C | 13% | 1020.3 hPa | 0 mm | - | - | - |
| 1777752028 | 20° C | 12% | 1020.3 hPa | 0 mm | - | - | - |
| 1777751724 | 20° C | 12% | 1020.4 hPa | 0 mm | - | - | - |
| 1777751421 | 20.56° C | 13% | 1020.4 hPa | 0 mm | - | - | - |
| 1777751118 | 20° C | 15% | 1020.5 hPa | 0 mm | - | - | - |
| 1777750815 | 19.44° C | 13% | 1020.6 hPa | 0 mm | - | - | - |
| 1777750511 | 20.56° C | 14% | 1020.6 hPa | 0 mm | - | - | - |
| 1777750208 | 20.56° C | 15% | 1020.6 hPa | 0 mm | - | - | - |
| 1777749905 | 20° C | 16% | 1020.6 hPa | 0 mm | - | - | - |
| 1777749602 | 19.44° C | 16% | 1020.8 hPa | 0 mm | - | - | - |
| 1777749298 | 19.44° C | 17% | 1021 hPa | 0 mm | - | - | - |
| 1777748995 | 18.89° C | 16% | 1021 hPa | 0 mm | - | - | - |
| 1777748692 | 18.33° C | 18% | 1021.1 hPa | 0 mm | - | - | - |
| 1777748389 | 18.89° C | 17% | 1021.3 hPa | 0 mm | - | - | - |
* Rain latest hour (hover to see other rain measurements)
** Current wind speed in m/s (hover to see current wind gust speed)